Weather History for Broome, WE

Change the Weather History Date:

Saturday, December 15, 2012

  Actual Average Record
Temperature  
Mean Temperature 87 °F -  
Max Temperature 96 °F 92 °F - ()
Min Temperature 78 °F 80 °F - ()
Cooling Degree Days 22    
Growing Degree Days 37 (Base 50)    
Moisture  
Dew Point 76 °F    
Average Humidity 66    
Maximum Humidity 89    
Minimum Humidity 43    
Precipitation  
Precipitation 0.00 in 0.17 in - ()
Sea Level Pressure  
Sea Level Pressure 29.78 in    
Wind  
Wind Speed 7 mph ()    
Max Wind Speed 21 mph    
Max Gust Speed -    
Visibility 7.3 miles    
Events Thunderstorm    
T = Trace of Precipitation, MM = Missing Value Source: Averaged Metar Reports

Daily Weather History Graph

Daily Weather History Graph

Search for Another Location

Airport:

Trip Planner

Search our weather history database for the weather conditions in past years. The results will help you decide how hot, cold, wet, or windy it might be!

Date:

Astronomy

Dec. 15, 2012 Rise Set
Actual Time 5:10 AM WST 6:22 PM WST
Civil Twilight 4:46 AM WST 6:46 PM WST
Nautical Twilight 4:17 AM WST 7:15 PM WST
Astronomical Twilight 3:48 AM WST 7:44 PM WST
Moon 6:57 AM WST (12/15) 8:15 PM WST (12/15)
Length of Visible Light 14h 00m
Length of Day
13h 12m
Waxing Crescent, 5% of the Moon is Illuminated
Dec 15
Waxing Crescent
Dec 20
First Quarter
Dec 28
Full
Jan 5
Last Quarter
Jan 12
New

Hourly Weather History & Observations

Time (WST) Temp. Heat Index Dew Point Humidity Pressure Visibility Wind Dir Wind Speed Gust Speed Precip Events Conditions
12:00 AM 86 °F - 77 °F 67% 29.84 in - South 6.9 mph - -  
12:00 AM 86.0 °F 96.9 °F 77.0 °F 74% 29.83 in 6.2 mi South 6.9 mph - N/A   Unknown
12:30 AM 86.0 °F 96.9 °F 77.0 °F 74% 29.83 in 6.2 mi South 5.8 mph - N/A   Unknown
1:00 AM 86.0 °F 96.9 °F 77.0 °F 74% 29.80 in 6.2 mi South 5.8 mph - N/A   Unknown
1:30 AM 86.0 °F 96.9 °F 77.0 °F 74% 29.80 in 6.2 mi South 5.8 mph - N/A   Unknown
2:00 AM 85 °F - 78 °F 74% 29.80 in - SE 4.6 mph - -  
2:00 AM 86.0 °F 99.3 °F 78.8 °F 79% 29.80 in 6.2 mi SE 4.6 mph - N/A   Unknown
2:30 AM 82.4 °F 90.9 °F 77.0 °F 84% 29.77 in 6.2 mi NE 2.3 mph - N/A   Unknown
3:00 AM 81 °F - 77 °F 83% 29.79 in - Calm Calm - -  
3:00 AM 80.6 °F 87.1 °F 77.0 °F 89% 29.77 in 6.2 mi Calm Calm - N/A   Unknown
3:30 AM 80.6 °F 86.2 °F 75.2 °F 84% 29.77 in 6.2 mi North 1.2 mph - N/A   Unknown
4:00 AM 80.6 °F 86.2 °F 75.2 °F 84% 29.77 in 6.2 mi Calm Calm - N/A   Unknown
4:30 AM 78.8 °F - 75.2 °F 89% 29.80 in 6.2 mi Calm Calm - N/A   Unknown
5:00 AM 80 °F - 75 °F 80% 29.81 in - Calm Calm - -  
5:00 AM 78.8 °F - 75.2 °F 89% 29.80 in 6.2 mi Calm Calm - N/A   Unknown
5:30 AM 78.8 °F - 75.2 °F 89% 29.80 in - Calm Calm - N/A   Clear
6:00 AM 82 °F - 77 °F 79% 29.82 in 19 mi Calm Calm - -   Partly Cloudy
6:00 AM 82.4 °F 90.9 °F 77.0 °F 84% 29.80 in - Calm Calm - N/A   Clear
6:30 AM 86.0 °F 95.1 °F 75.2 °F 70% 29.83 in - NNE 3.5 mph - N/A   Clear
7:00 AM 87.8 °F 97.6 °F 75.2 °F 66% 29.83 in - East 3.5 mph - N/A   Clear
7:30 AM 89.6 °F 98.2 °F 73.4 °F 59% 29.83 in - ESE 3.5 mph - N/A   Clear
8:00 AM 89 °F - 74 °F 54% 29.85 in - ESE 8.1 mph - -  
8:00 AM 87.8 °F 97.6 °F 75.2 °F 66% 29.83 in - ESE 8.1 mph - N/A   Clear
8:30 AM 89.6 °F 99.8 °F 75.2 °F 62% 29.86 in - ESE 5.8 mph - N/A   Clear
9:00 AM 90 °F - 76 °F 55% 29.85 in 19 mi SSE 6.9 mph - -   Partly Cloudy
9:00 AM 89.6 °F 99.8 °F 75.2 °F 62% 29.83 in 6.2 mi SSE 6.9 mph - N/A   Partly Cloudy
9:30 AM 91.4 °F 100.1 °F 73.4 °F 55% 29.83 in 6.2 mi WSW 8.1 mph - N/A   Partly Cloudy
10:00 AM 91.4 °F 100.1 °F 73.4 °F 55% 29.83 in 6.2 mi SW 8.1 mph - N/A   Unknown
10:30 AM 91.4 °F 98.4 °F 71.6 °F 52% 29.83 in 6.2 mi West 10.4 mph - N/A   Partly Cloudy
11:00 AM 92 °F - 72 °F 43% 29.81 in - West 10.4 mph - -  
11:00 AM 93.2 °F 100.5 °F 71.6 °F 49% 29.80 in 6.2 mi West 10.4 mph - N/A   Partly Cloudy
11:30 AM 93.2 °F 102.4 °F 73.4 °F 52% 29.80 in 6.2 mi West 11.5 mph - N/A   Scattered Clouds
12:00 PM 93 °F - 74 °F 44% 29.79 in 19 mi West 11.5 mph - -   Partly Cloudy
12:00 PM 93.2 °F 102.4 °F 73.4 °F 52% 29.77 in 6.2 mi West 11.5 mph - N/A   Scattered Clouds
12:30 PM 93.2 °F 102.4 °F 73.4 °F 52% 29.77 in 6.2 mi West 12.7 mph - N/A   Scattered Clouds
1:00 PM 95.0 °F 104.5 °F 73.4 °F 49% 29.74 in 6.2 mi WSW 12.7 mph - N/A   Scattered Clouds
1:30 PM 95.0 °F 107.4 °F 75.2 °F 53% 29.74 in 6.2 mi West 13.8 mph - N/A   Partly Cloudy
2:00 PM 96 °F - 76 °F 43% 29.74 in - West 15.0 mph - -  
2:00 PM 95.0 °F 107.4 °F 75.2 °F 53% 29.74 in 6.2 mi West 15.0 mph - N/A   Partly Cloudy
2:30 PM 93.2 °F 107.2 °F 77.0 °F 59% 29.71 in 6.2 mi West 15.0 mph - N/A   Partly Cloudy
3:00 PM 92 °F - 78 °F 55% 29.72 in 22 mi West 20.7 mph - - Thunderstorm Thunderstorm
3:00 PM 91.4 °F 105.1 °F 77.0 °F 63% 29.71 in 6.2 mi West 20.7 mph - N/A   Partly Cloudy
3:30 PM 93.2 °F 107.2 °F 77.0 °F 59% 29.71 in 6.2 mi WSW 19.6 mph - N/A   Partly Cloudy
4:00 PM 89.6 °F 102.2 °F 77.0 °F 66% 29.71 in 6.2 mi WSW 19.6 mph - N/A   Scattered Clouds
4:30 PM 91.4 °F 105.1 °F 77.0 °F 63% 29.71 in 6.2 mi WSW 18.4 mph - N/A   Scattered Clouds
5:00 PM 89 °F - 76 °F 57% 29.71 in - WSW 16.1 mph - -  
5:00 PM 89.6 °F 99.8 °F 75.2 °F 62% 29.71 in - WSW 16.1 mph - N/A   Clear
5:30 PM 89.6 °F 102.2 °F 77.0 °F 66% 29.71 in - WSW 16.1 mph - N/A   Clear
6:00 PM 88 °F - 76 °F 60% 29.73 in 22 mi WSW 13.8 mph - -   Smoke
6:00 PM 87.8 °F 97.6 °F 75.2 °F 66% 29.71 in - WSW 13.8 mph - N/A   Clear
6:30 PM 87.8 °F 97.6 °F 75.2 °F 66% 29.74 in - SW 12.7 mph - N/A   Clear
7:00 PM 87.8 °F 99.7 °F 77.0 °F 70% 29.74 in - SW 12.7 mph - N/A   Clear
7:30 PM 87.8 °F 99.7 °F 77.0 °F 70% 29.77 in - WSW 10.4 mph - N/A   Clear
8:00 PM 87 °F - 76 °F 63% 29.79 in - WSW 10.4 mph - -  
8:00 PM 87.8 °F 99.7 °F 77.0 °F 70% 29.77 in - WSW 10.4 mph - N/A   Clear
8:30 PM 86.0 °F 99.3 °F 78.8 °F 79% 29.80 in - WSW 11.5 mph - N/A   Clear
9:00 PM 87 °F - 78 °F 67% 29.80 in 22 mi WSW 12.7 mph - -   Partly Cloudy
9:00 PM 86.0 °F 96.9 °F 77.0 °F 74% 29.80 in - WSW 12.7 mph - N/A   Clear
9:30 PM 87.8 °F 97.6 °F 75.2 °F 66% 29.80 in 6.2 mi WSW 11.5 mph - N/A   Unknown
10:00 PM 86.0 °F 95.1 °F 75.2 °F 70% 29.80 in 6.2 mi SW 11.5 mph - N/A   Unknown
10:30 PM 86.0 °F 95.1 °F 75.2 °F 70% 29.80 in 6.2 mi SW 10.4 mph - N/A   Scattered Clouds
11:00 PM 86 °F - 77 °F 67% 29.81 in - SSW 9.2 mph - -  
11:00 PM 86.0 °F 96.9 °F 77.0 °F 74% 29.80 in 6.2 mi SSW 9.2 mph - N/A   Scattered Clouds
11:30 PM 86.0 °F 95.1 °F 75.2 °F 70% 29.80 in 6.2 mi SSW 8.1 mph - N/A   Mostly Cloudy